Regional Weather Roundup
Issued by NWS Grand Forks, ND

Home | Current Version | Previous Version | Text Only | Print | Product List | Glossary Off
Versions: 1 2 3 4 5 6 7 8 9 10 11 12 13 14 15 16 17 18 19 20 21 22 23 24 25 26 27 28 29 30 31 32 33 34 35 36 37 38 39 40 41 42 43 44 45 46 47 48 49 50

000
ASUS43 KFGF 271531
RWRFGF
PRAIRIE TO PINES  WEATHER ROUNDUP
NATIONAL WEATHER SERVICE EASTERN NORTH DAKOTA/GRAND FORKS ND
1000 AM CDT WED MAY 27 2015

 **SATELLITE DATA USED TO AUGMENT SKY COVER AT AUTOMATED STATIONS**
 *****  WEATHER ACROSS EASTERN NORTH DAKOTA  *****

CITY           SKY/WX    TMP DP  RH WIND       PRES   REMARKS
GRAND FORKS    MOSUNNY   61  47  59 N14       29.94S
GRAND FRKS AFB SUNNY     60  47  62 N13       29.95S
GRAND FRKS NWS   N/A     61 N/A N/A VRB3        N/A
DEVILS LAKE    SUNNY     61  46  59 NE10      29.96S
FARGO          SUNNY     68  54  60 N7        29.93R
WAHPETON ARPT  SUNNY     68  52  56 NW10      29.94S
$$

 ***** WEATHER ACROSS CENTRAL AND WESTERN NORTH DAKOTA  *****

CITY           SKY/WX    TMP DP  RH WIND       PRES   REMARKS
BISMARCK       SUNNY     70  52  52 CALM      29.97R
MINOT          SUNNY     68  49  50 NE5       29.95S
JAMESTOWN      SUNNY     71  53  52 NW6       29.95R
MINOT AFB      SUNNY     69  55  62 SE5       29.95S
GARRISON         N/A     71  52  50 E9        29.96R
WILLISTON      SUNNY     70  48  45 VRB5      29.93S
DICKINSON      MOSUNNY   67  50  54 S12       29.94S
HETTINGER      SUNNY     67  52  58 S9        29.98S
$$

 *****  OTHER AIRPORT OBSERVATIONS IN OUR AREA  *****

CITY           SKY/WX    TMP DP  RH WIND       PRES   REMARKS
WALHALLA         N/A     55  45  67 MISG      30.00R
GRAFTON AIRPOR FAIR      59  46  63 N17       29.96F
VALLEY CITY AR FAIR      72  50  46 E3        29.95S
CANDO          FAIR      61  45  55 NE13      29.99S
CAVALIER APRT  FAIR      57  45  62 NW15      29.98S
GWINNER        NOT AVBL
ROLLA          FAIR      55  41  58 NE12G17   30.01S
 ***** THE ABOVE OBSERVATIONS ARE NON NWS ARE NOT QUALITY
       CONTROLLED AND MAY MIS-REPORT RAIN FOR SNOW...
$$

  *****  WEATHER ACROSS NORTHERN MINNESOTA  *****

CITY           SKY/WX    TMP DP  RH WIND       PRES   REMARKS
FLAG ISLAND    SUNNY     57  46  67 NW14      29.90R
WARROAD        SUNNY     61  50  67 NW6       29.92S
ROSEAU         SUNNY     63  50  63 N7        29.92S
HALLOCK        SUNNY     61  46  59 N12       29.95S
THF RVR FALLS  MOSUNNY   63  50  63 NW8       29.93S
BAUDETTE       SUNNY     60  49  66 NW12      29.89R
WASKISH        MOSUNNY   64  55  72 SW9       29.90R
CROOKSTON      SUNNY     63  46  55 N8        29.94S
STEPHEN NDAWN    N/A     61  46  59 N14         N/A
GREENBUSH NDAW   N/A     59  48  67 N10         N/A
$$
  *****  WEATHER ACROSS CENTRAL AND WEST MINNESOTA  *****

CITY           SKY/WX    TMP DP  RH WIND       PRES   REMARKS
FOSSTON        MOSUNNY   66  48  52 CALM      29.94R
BEMIDJI        SUNNY     67  51  57 W8        29.91R
PARK RAPIDS    SUNNY     71  49  45 N7        29.90R
ELBOW LAKE     FAIR      66  55  68 NW7       29.93S
WADENA         SUNNY     70  55  60 NW5       29.91S
DETROIT LAKES  SUNNY     64  54  68 NW8       29.94S
MOORHEAD       SUNNY     66  55  68 N8        29.94S
FERGUS FALLS   SUNNY     66  55  68 NW12      29.94S
MORRIS MN      SUNNY     72  55  56 NW10      29.93S
STAPLES        SUNNY     70  55  60 W6        29.91R
$$
  *****  WEATHER ELSEWHERE ACROSS MINNESOTA  *****

CITY           SKY/WX    TMP DP  RH WIND       PRES   REMARKS
DULUTH         MOSUNNY   70  54  56 NW7       29.85R
INTRNTL FALLS  SUNNY     69  52  54 NW6       29.85R
ELY            NOT AVBL
CLOQUET        MOSUNNY   72  54  53 W3        29.86S
WHEATON        SUNNY     70  54  56 W10       29.96S
BRAINERD       MOSUNNY   67  56  67 NW5       29.90R
HIBBING        SUNNY     70  53  54 NW3       29.85R
ALEXANDRIA     SUNNY     68  54  60 W7        29.93S
SAINT CLOUD    SUNNY     68  57  68 SW7       29.90S
MINNEAPOLIS    MOSUNNY   68  57  68 SW8       29.92S
$$

  *****  WEATHER ACROSS SOUTH DAKOTA  *****

CITY           SKY/WX    TMP DP  RH WIND       PRES   REMARKS
SIOUX FALLS    MOSUNNY   73  53  49 NW10      30.00S
BROOKINGS      SUNNY     72  54  53 NW9       29.99S
WATERTOWN      SUNNY     73  51  46 NW13      29.98S
HURON          SUNNY     71  52  50 VRB3      30.00R
SISSETON         N/A     73  51  46 N13       29.94R
ABERDEEN       SUNNY     76  55  48 NW7       29.97S
MITCHELL       SUNNY     72  53  51 W7        30.01S
PIERRE         SUNNY     68  51  54 SW7       29.99S
MOBRIDGE       SUNNY     68  54  60 S5        29.97R
RAPID CITY     CLOUDY    60  54  80 S9        30.00S
$$

  *****  SOME WEATHER IN NEARBY STATES *****

CITY           SKY/WX    TMP DP  RH WIND       PRES   REMARKS
GLASGOW MT     PTSUNNY   62  54  74 CALM      29.94R
GREAT FALLS MT CLOUDY    52  48  86 SW9       30.03S
CHEYENNE WY    SUNNY     62  43  49 W7        30.10S
SCOTTSBLUFF NE PTSUNNY   60  53  77 SE9       30.04S
OMAHA NE       SUNNY     69  56  62 CALM      30.06R
DES MOINES IA  SUNNY     71  57  61 VRB7      30.03R
DAVENPORT IA   CLOUDY    65  58  78 W16       30.01R
CHICAGO IL     PTSUNNY   69  58  67 W20G26    29.94S
EAU CLAIRE WI  SUNNY     65  56  72 W12       29.92S
LA CROSSE WI   SUNNY     67  57  70 CALM      29.95S
$$

  *****  SOME NATIONAL WEATHER *****

CITY           SKY/WX    TMP DP  RH WIND       PRES   REMARKS
LA GUARDIA NY  PTSUNNY   78  65  63 S8        30.17S
RALEIGH NC     PTSUNNY   81  70  69 SW9       30.26S
ATLANTA GA     PTSUNNY   73  64  73 S5        30.25F
NEW ORLEANS LA CLOUDY    83  72  69 SE9       30.14F
OKLAHOMA CITY  CLOUDY    73  63  70 S6        30.09R
ALBUQUERQUE NM MOSUNNY   63  45  51 CALM      30.18R
SALT LAKE CITY PTSUNNY   59  48  67 CALM      30.08R
LOS ANGELES CA CLOUDY    59  54  83 W7        30.01R
BOISE ID       SUNNY     58  52  80 CALM      30.01R
SEATTLE WA     PTSUNNY   57  53  86 CALM      30.08R
$$

*** WEATHER ACROSS MANITOBA...SASKATCHEWAN AND ONTARIO ***
                ***ONTARIO***

CITY           SKY/WX    TMP DP  RH WIND       PRES   REMARKS
GERALDTON      PTSUNNY   61  50  67 N8        29.75R
THUNDER BAY    PTSUNNY   70  55  60 W7        29.75R
SIOUX LOOKOUT  PTSUNNY   57  43  58 N5        29.87R
TORONTO        PTSUNNY   77  63  61 SW16G24   29.97F
BIG TROUT LK   SUNNY     34  25  69 NE7       30.04R
PICKLE LAKE    CLOUDY    41  34  75 NE10G18   29.93R
DRYDEN         SUNNY     59  46  63 N8        29.88R
KENORA         SUNNY     59  46  63 NW10      29.91R
$$
                *** MANITOBA***

CITY           SKY/WX    TMP DP  RH WIND       PRES   REMARKS
BRANDON        CLOUDY    52  39  62 NE15G22   30.04R
DAUPHIN        SUNNY     50  37  62 NE13      30.09R
ISLAND LAKE    MOSUNNY   45  25  45 N7        30.11R
PILOT MOUND      N/A     52  43  71 N10         N/A
THE PAS        MOSUNNY   52  28  40 S5        30.13S
THOMPSON       MOSUNNY   50  25  37 NW10      30.12R
WINNIPEG       MOSUNNY   55  43  62 N14G22    30.01R
LYNN LAKE      CLOUDY    46  25  42 VRB5      30.11S
CHURCHILL      CLOUDY    32  23  69 N16       30.13R WCI  21
GILLAM         PTSUNNY   39  28  65 N12       30.11R
$$
                ***SASKATCHEWAN***

CITY           SKY/WX    TMP DP  RH WIND       PRES   REMARKS
ESTEVAN        PTSUNNY   57  46  67 E15G22    29.98R
KINDERSLEY     PTSUNNY   55  46  71 E8        30.01
LLOYDMINSTER   MOSUNNY   55  43  62 SE10      30.02F
PRINCE ALBERT  PTSUNNY   52  39  62 SE7       30.09S
REGINA         PTSUNNY   59  46  63 E13       30.00R
YORKTON        CLOUDY    48  41  76 E10       30.06R
N. BATTLEFORD  SUNNY     55  41  58 SE13      30.06S
LA RONGE       MOSUNNY   50  37  62 SE6       30.09S
SASKATOON      PTSUNNY   50  43  76 E8        30.06S
SWIFT CURRENT  SUNNY     59  50  72 E13       29.96S
$$
NOTE: THESE ARE AUTOMATED STATIONS WITH LIMITED QUALITY CONTROL
      "FAIR" INDICATES FEW OR NO CLOUDS BELOW 12,000 FEET WITH NO
      SIGNIFICANT WEATHER AND/OR OBSTRUCTIONS TO VISIBILITY.
      SKY/WX - SKY CONDITION AND SIGNIFICANT WEATHER.
      TMP - AIR TEMPERATURE.    DP   - DEWPOINT TEMPERATURE.
      RH  - RELATIVE HUMIDITY.  PRES - PRESSURE.
      HX  - HEAT INDEX.         WCI  - WIND CHILL INDEX.
$



USA.gov is the U.S. government's official web portal to all federal, state and local government web resources and services.